GW6340 Weather Reports


time (UTC)temp
C
wind
direction
speed
KPH
gust
KPH
rain 1hr
cm
rain 24hr
cm
rain mn
cm
humidity
%
barometer
mb
20260507084057 27 13 0.0 3.2 0.00 0.00 0.00 82 1009.8
20260507083557 27 13 0.0 3.2 0.00 0.00 0.00 82 1009.9
20260507083058 27 11 0.0 3.2 0.00 0.00 0.00 82 1010.0
20260507082558 27 15 0.0 3.2 0.00 0.00 0.00 82 1010.0
20260507082058 27 15 0.0 3.2 0.00 0.00 0.00 82 1010.1
20260507081559 27 15 0.0 3.2 0.00 0.00 0.00 82 1010.2
20260507081057 27 65 0.0 3.2 0.00 0.00 0.00 83 1010.2
20260507080558 27 80 0.0 3.2 0.00 0.00 0.00 83 1010.3
20260507080057 27 80 0.0 3.2 0.00 0.00 0.00 83 1010.5
20260507075557 27 80 0.0 3.2 0.00 0.00 0.00 83 1010.5
20260507075056 27 87 1.6 3.2 0.00 0.00 0.00 83 1010.6
20260507074557 27 79 0.0 3.2 0.00 0.00 0.00 84 1010.5
20260507074056 27 65 0.0 3.2 0.00 0.00 0.00 84 1010.7
20260507073558 27 9 1.6 3.2 0.00 0.00 0.00 84 1010.8
20260507073134 27 11 1.6 3.2 0.00 0.00 0.00 84 1010.9
20260507072557 27 17 1.6 3.2 0.00 0.00 0.00 84 1010.9
20260507072056 27 318 0.0 3.2 0.00 0.00 0.00 84 1011.0
20260507071557 27 318 0.0 3.2 0.00 0.00 0.00 84 1011.0
20260507071057 27 318 0.0 3.2 0.00 0.00 0.00 84 1011.1
20260507070557 28 318 0.0 3.2 0.00 0.00 0.00 84 1011.1
20260507070058 28 318 0.0 1.6 0.00 0.00 0.00 84 1011.3
20260507065559 28 318 0.0 3.2 0.00 0.00 0.00 84 1011.4
20260507065059 28 318 0.0 3.2 0.00 0.00 0.00 84 1011.4
20260507064612 28 318 0.0 3.2 0.00 0.00 0.00 83 1011.5
20260507064100 28 335 0.0 3.2 0.00 0.00 0.00 83 1011.7
20260507063559 28 355 0.0 3.2 0.00 0.00 0.00 83 1011.7
20260507063115 28 336 0.0 3.2 0.00 0.00 0.00 83 1011.7
20260507062600 28 9 0.0 3.2 0.00 0.00 0.00 83 1011.8
20260507062100 28 29 1.6 3.2 0.00 0.00 0.00 83 1011.9
20260507061600 28 13 1.6 3.2 0.00 0.00 0.00 83 1012.0
20260507061104 28 38 1.6 3.2 0.00 0.00 0.00 83 1012.0
20260507060559 28 9 1.6 4.8 0.00 0.00 0.00 83 1012.0
20260507060059 28 355 3.2 6.4 0.00 0.00 0.00 83 1012.0
20260507055600 28 360 3.2 6.4 0.00 0.00 0.00 83 1012.1
20260507055100 28 355 1.6 4.8 0.00 0.00 0.00 83 1012.1
20260507054601 28 13 1.6 4.8 0.00 0.00 0.00 83 1012.1
20260507054102 28 9 3.2 4.8 0.00 0.00 0.00 83 1012.0
20260507053601 28 324 1.6 3.2 0.00 0.00 0.00 83 1012.1
20260507053101 28 306 0.0 3.2 0.00 0.00 0.00 83 1012.1
20260507052600 28 282 1.6 3.2 0.00 0.00 0.00 83 1012.0
20260507052100 28 277 1.6 3.2 0.00 0.00 0.00 83 1012.1
20260507051600 28 302 1.6 3.2 0.00 0.00 0.00 83 1012.0
20260507051104 28 308 0.0 3.2 0.00 0.00 0.00 83 1012.1
20260507050600 28 272 1.6 3.2 0.00 0.00 0.00 83 1012.0
20260507045559 28 247 1.6 4.8 0.00 0.00 0.00 83 1011.9
20260507045100 28 289 1.6 4.8 0.00 0.00 0.00 83 1011.9
20260507044601 28 263 0.0 4.8 0.00 0.00 0.00 84 1012.0
20260507044059 28 311 1.6 4.8 0.00 0.00 0.00 84 1011.9
20260507043600 28 306 1.6 3.2 0.00 0.00 0.00 84 1011.9
20260507043101 28 342 0.0 4.8 0.00 0.00 0.00 84 1011.8
20260507042559 28 355 0.0 4.8 0.00 0.00 0.00 84 1011.7
20260507042103 28 332 1.6 4.8 0.00 0.00 0.00 84 1011.7
20260507041612 28 333 0.0 4.8 0.00 0.00 0.00 84 1011.7
20260507041100 28 312 1.6 4.8 0.00 0.00 0.00 84 1011.6
20260507040600 28 300 0.0 4.8 0.00 0.00 0.00 84 1011.6
20260507040108 28 317 1.6 4.8 0.00 0.00 0.00 84 1011.5
20260507035600 28 311 0.0 4.8 0.00 0.00 0.00 84 1011.4
20260507035100 28 360 1.6 4.8 0.00 0.00 0.00 84 1011.4
20260507034620 28 328 1.6 6.4 0.00 0.00 0.00 84 1011.2
20260507034102 28 271 3.2 6.4 0.00 0.00 0.00 84 1011.2
20260507033600 28 278 1.6 8.0 0.00 0.00 0.00 83 1011.1
20260507033108 28 332 4.8 8.0 0.00 0.00 0.00 83 1011.1
20260507032600 28 323 4.8 8.0 0.00 0.00 0.00 83 1011.0
20260507032100 28 330 3.2 6.4 0.00 0.00 0.00 83 1011.0
20260507031600 28 322 1.6 6.4 0.00 0.00 0.00 83 1011.0
20260507031102 28 290 1.6 6.4 0.00 0.00 0.00 83 1011.0
20260507030604 28 340 3.2 6.4 0.00 0.00 0.00 83 1011.0
20260507030105 28 348 1.6 6.4 0.00 0.00 0.00 82 1010.9
20260507030000 28 9 1.6 6.4 0.00 0.00 0.00 82 1011.0
20260507025559 28 5 3.2 9.7 0.00 0.00 0.00 82 1010.9
20260507025101 28 316 4.8 9.7 0.00 0.00 0.00 82 1011.0
20260507024605 28 360 4.8 8.0 0.00 0.00 0.00 82 1011.0
20260507024100 28 345 4.8 8.0 0.00 0.00 0.00 82 1010.9
20260507023600 28 339 4.8 8.0 0.00 0.00 0.00 82 1011.1
20260507023059 28 9 3.2 8.0 0.00 0.00 0.00 82 1011.0
20260507022600 28 309 3.2 8.0 0.00 0.00 0.00 82 1011.0
20260507022101 28 299 3.2 8.0 0.00 0.00 0.00 81 1011.0
20260507021608 28 313 3.2 9.7 0.00 0.00 0.00 82 1010.9
20260507021059 28 316 4.8 9.7 0.00 0.00 0.00 82 1011.0
20260507020559 28 320 4.8 8.0 0.00 0.00 0.00 82 1011.0
20260507020002 28 287 1.6 11.3 0.00 0.00 0.00 82 1011.0
20260507015559 28 325 4.8 11.3 0.00 0.00 0.00 82 1011.0
20260507015500 28 252 4.8 11.3 0.00 0.00 0.00 81 1010.9
20260507015101 28 317 4.8 9.7 0.00 0.00 0.00 82 1011.0
20260507014600 28 329 1.6 9.7 0.00 0.00 0.00 82 1010.8
20260507014103 28 331 3.2 8.0 0.00 0.00 0.00 82 1010.9
20260507013601 28 339 1.6 9.7 0.00 0.00 0.00 82 1010.9
20260507013116 28 274 3.2 11.3 0.00 0.00 0.00 82 1010.9
20260507012601 28 323 3.2 11.3 0.00 0.00 0.00 81 1010.9
20260507012100 28 294 1.6 11.3 0.00 0.00 0.00 81 1010.7
20260507011600 28 267 1.6 11.3 0.00 0.00 0.00 81 1010.6
20260507011100 28 250 3.2 9.7 0.00 0.00 0.00 81 1010.6
20260507010600 28 306 1.6 14.5 0.00 0.00 0.00 81 1010.6
20260507010003 28 273 6.4 14.5 0.00 0.00 0.00 81 1010.6
20260507005605 28 296 4.8 12.9 0.00 0.00 0.00 81 1010.6
20260507005059 28 269 4.8 11.3 0.00 0.00 0.00 81 1010.4
20260507004600 28 303 1.6 11.3 0.00 0.00 0.00 81 1010.3
20260507004059 28 255 3.2 11.3 0.00 0.00 0.00 81 1010.5
20260507003603 28 275 3.2 12.9 0.00 0.00 0.00 81 1010.4
20260507003100 28 257 4.8 12.9 0.00 0.00 0.00 81 1010.2
20260507002559 29 308 3.2 12.9 0.00 0.00 0.00 81 1010.1
20260507002100 29 315 4.8 12.9 0.00 0.00 0.00 81 1010.1
20260507001613 29 9 4.8 12.9 0.00 0.00 0.00 81 1010.0
20260507001059 29 302 3.2 12.9 0.00 0.00 0.00 81 1010.0
20260507000559 29 271 4.8 16.1 0.00 0.00 0.00 81 1010.0
20260507000002 29 256 4.8 16.1 0.00 0.00 0.00 80 1009.9
20260506235600 29 277 4.8 14.5 0.00 0.00 0.00 81 1009.7
20260506235100 30 326 8.0 14.5 0.00 0.00 0.00 80 1009.6
20260506234608 30 249 4.8 14.5 0.00 0.00 0.00 80 1009.6
20260506234102 29 260 4.8 14.5 0.00 0.00 0.00 80 1009.6
20260506233600 29 279 6.4 14.5 0.00 0.00 0.00 79 1009.7
20260506233109 30 296 6.4 14.5 0.00 0.00 0.00 78 1009.7
20260506232600 30 298 8.0 19.3 0.00 0.00 0.00 78 1009.6
20260506232101 30 210 4.8 19.3 0.00 0.00 0.00 78 1009.6
20260506231600 30 298 8.0 17.7 0.00 0.00 0.00 78 1009.6
20260506231100 30 261 8.0 16.1 0.00 0.00 0.00 77 1009.5
20260506230601 30 286 8.0 14.5 0.00 0.00 0.00 77 1009.6
20260506230501 30 267 6.4 14.5 0.00 0.00 0.00 77 1009.6
20260506225601 30 346 4.8 14.5 0.00 0.00 0.00 78 1009.6
20260506225059 30 315 9.7 14.5 0.00 0.00 0.00 78 1009.6
20260506224613 30 274 4.8 16.1 0.00 0.00 0.00 78 1009.7
20260506224058 30 250 8.0 16.1 0.00 0.00 0.00 78 1009.6
20260506223558 30 298 4.8 14.5 0.00 0.00 0.00 78 1009.7
20260506223103 30 270 6.4 16.1 0.00 0.00 0.00 78 1009.6
20260506222559 30 277 8.0 17.7 0.00 0.00 0.00 78 1009.7
20260506222059 30 255 8.0 19.3 0.00 0.00 0.00 79 1009.7
20260506221559 30 271 12.9 17.7 0.00 0.00 0.00 78 1009.6
20260506221058 30 251 4.8 12.9 0.00 0.00 0.00 80 1009.7
20260506220558 30 268 9.7 14.5 0.00 0.00 0.00 79 1009.7
20260506220110 30 267 4.8 16.1 0.00 0.00 0.00 80 1009.6
20260506215600 30 311 8.0 16.1 0.00 0.00 0.00 80 1009.6
20260506215059 30 293 6.4 14.5 0.00 0.00 0.00 80 1009.6
20260506214559 30 275 9.7 14.5 0.00 0.00 0.00 80 1009.6
20260506214058 30 274 9.7 16.1 0.00 0.00 0.00 80 1009.6
20260506213603 30 296 9.7 16.1 0.00 0.00 0.00 81 1009.6
20260506213059 30 275 11.3 16.1 0.00 0.00 0.00 80 1009.6
20260506212558 30 273 11.3 16.1 0.00 0.00 0.00 80 1009.6
20260506212059 30 267 8.0 14.5 0.00 0.00 0.00 80 1009.6
20260506211559 30 255 9.7 17.7 0.00 0.00 0.00 79 1009.6
20260506211058 30 245 9.7 17.7 0.00 0.00 0.00 79 1009.8
20260506210559 30 265 8.0 14.5 0.00 0.00 0.00 78 1009.9
20260506210100 30 265 4.8 14.5 0.00 0.00 0.00 78 1009.9
20260506210001 30 203 4.8 14.5 0.00 0.00 0.00 78 1009.9
20260506205600 31 267 9.7 14.5 0.00 0.00 0.00 76 1009.9
20260506205101 31 276 3.2 11.3 0.00 0.00 0.00 76 1009.9
20260506204600 31 257 6.4 11.3 0.00 0.00 0.00 76 1009.9
20260506204100 31 252 3.2 11.3 0.00 0.00 0.00 76 1009.9
20260506203604 31 238 4.8 14.5 0.00 0.00 0.00 76 1009.9
20260506203102 31 257 4.8 14.5 0.00 0.00 0.00 76 1010.0
20260506202600 31 217 4.8 14.5 0.00 0.00 0.00 76 1010.1
20260506202100 31 211 4.8 14.5 0.00 0.00 0.00 76 1010.1
20260506201600 31 192 4.8 12.9 0.00 0.00 0.00 77 1010.1
20260506201100 30 248 6.4 14.5 0.00 0.00 0.00 77 1010.0
20260506200603 30 256 4.8 14.5 0.00 0.00 0.00 77 1010.1
20260506200109 30 219 8.0 12.9 0.00 0.00 0.00 77 1010.1
20260506195559 30 251 6.4 12.9 0.00 0.00 0.00 77 1010.2
20260506195058 31 255 3.2 12.9 0.00 0.00 0.00 77 1010.4
20260506194601 30 155 3.2 12.9 0.00 0.00 0.00 78 1010.4
20260506194058 30 267 6.4 11.3 0.00 0.00 0.00 78 1010.4
20260506193558 30 273 4.8 12.9 0.00 0.00 0.00 78 1010.4
20260506193110 30 195 4.8 12.9 0.00 0.00 0.00 79 1010.6
20260506192558 30 219 9.7 14.5 0.00 0.00 0.00 78 1010.5
20260506192100 30 251 6.4 14.5 0.00 0.00 0.00 78 1010.6
20260506191559 30 193 8.0 12.9 0.00 0.00 0.00 78 1010.8
20260506191059 30 209 8.0 12.9 0.00 0.00 0.00 77 1010.8
20260506190559 30 207 6.4 16.1 0.00 0.00 0.00 78 1010.8
20260506190059 30 214 9.7 16.1 0.00 0.00 0.00 78 1010.8
20260506185559 30 188 9.7 12.9 0.00 0.00 0.00 77 1010.9
20260506185058 30 196 6.4 12.9 0.00 0.00 0.00 78 1011.0
20260506184559 30 220 6.4 14.5 0.00 0.00 0.00 79 1011.0
20260506184058 30 197 11.3 14.5 0.00 0.00 0.00 78 1011.2
20260506183557 30 212 9.7 14.5 0.00 0.00 0.00 78 1011.2
20260506183102 30 161 8.0 14.5 0.00 0.00 0.00 78 1011.3
20260506182558 30 194 8.0 14.5 0.00 0.00 0.00 79 1011.3
20260506182058 30 200 8.0 12.9 0.00 0.00 0.00 79 1011.3
20260506181625 30 170 8.0 14.5 0.00 0.00 0.00 78 1011.3
20260506181058 30 207 6.4 14.5 0.00 0.00 0.00 79 1011.3
20260506180559 30 206 9.7 14.5 0.00 0.00 0.00 79 1011.4
20260506180106 30 204 8.0 16.1 0.00 0.00 0.00 79 1011.5
20260506180001 30 184 8.0 16.1 0.00 0.00 0.00 78 1011.5
20260506175558 30 213 9.7 16.1 0.00 0.00 0.00 79 1011.4
20260506175103 30 187 9.7 16.1 0.00 0.00 0.00 78 1011.4
20260506174558 30 159 9.7 16.1 0.00 0.00 0.00 79 1011.4
20260506174058 30 194 11.3 16.1 0.00 0.00 0.00 78 1011.4
20260506173558 30 197 8.0 14.5 0.00 0.00 0.00 78 1011.6
20260506173129 30 188 8.0 14.5 0.00 0.00 0.00 77 1011.6
20260506172600 30 170 8.0 14.5 0.00 0.00 0.00 77 1011.7
20260506172058 30 194 9.7 14.5 0.00 0.00 0.00 77 1011.8
20260506171605 30 198 9.7 12.9 0.00 0.00 0.00 76 1011.9
20260506171058 30 217 8.0 12.9 0.00 0.00 0.00 75 1011.9
20260506170559 30 211 9.7 12.9 0.00 0.00 0.00 75 1011.8
20260506170109 30 238 6.4 11.3 0.00 0.00 0.00 76 1012.0
20260506165602 30 180 4.8 11.3 0.00 0.00 0.00 77 1012.0
20260506165058 29 215 8.0 12.9 0.00 0.00 0.00 77 1012.0
20260506164559 29 212 8.0 12.9 0.00 0.00 0.00 78 1012.1
20260506164100 29 205 6.4 11.3 0.00 0.00 0.00 79 1012.1
20260506163559 29 236 6.4 11.3 0.00 0.00 0.00 80 1012.2
20260506163059 29 181 4.8 11.3 0.00 0.00 0.00 80 1012.2
20260506162558 29 175 4.8 11.3 0.00 0.00 0.00 80 1012.1
20260506162100 29 187 6.4 11.3 0.00 0.00 0.00 80 1012.0
20260506161601 29 232 4.8 9.7 0.00 0.00 0.00 80 1012.1
20260506161058 29 223 4.8 9.7 0.00 0.00 0.00 80 1012.1
20260506160559 29 225 4.8 9.7 0.00 0.00 0.00 80 1012.1
20260506160117 29 173 4.8 9.7 0.00 0.00 0.00 80 1012.0
20260506155558 28 192 8.0 9.7 0.00 0.00 0.00 79 1012.0
20260506155059 29 214 6.4 9.7 0.00 0.00 0.00 79 1011.9
20260506154559 29 211 4.8 9.7 0.00 0.00 0.00 80 1012.0
20260506154058 28 187 4.8 9.7 0.00 0.00 0.00 80 1012.1
20260506153559 29 199 4.8 8.0 0.00 0.00 0.00 80 1012.1
20260506153059 28 219 4.8 8.0 0.00 0.00 0.00 79 1012.3
20260506152558 29 186 3.2 6.4 0.00 0.00 0.00 80 1012.3
20260506152058 29 232 4.8 6.4 0.00 0.00 0.00 79 1012.3
20260506151600 29 273 3.2 6.4 0.00 0.00 0.00 79 1012.2
20260506151058 28 254 3.2 4.8 0.00 0.00 0.00 79 1012.0
20260506150558 28 240 1.6 6.4 0.00 0.00 0.00 80 1012.1
20260506150104 28 265 1.6 6.4 0.00 0.00 0.00 81 1012.2
20260506145558 28 265 1.6 6.4 0.00 0.00 0.00 80 1012.1
20260506145157 28 267 3.2 6.4 0.00 0.00 0.00 80 1011.9
20260506144600 28 245 4.8 8.0 0.00 0.00 0.00 80 1012.0
20260506144058 28 255 4.8 9.7 0.00 0.00 0.00 80 1011.9
20260506143558 28 221 1.6 4.8 0.00 0.00 0.00 79 1011.8
20260506143059 28 294 3.2 8.0 0.00 0.00 0.00 79 1011.8
20260506142559 28 355 3.2 8.0 0.00 0.00 0.00 80 1011.7
20260506142058 28 338 3.2 6.4 0.00 0.00 0.00 81 1011.5
20260506141559 28 315 4.8 6.4 0.00 0.00 0.00 81 1011.5
20260506141058 28 355 3.2 4.8 0.00 0.00 0.00 81 1011.5
20260506140558 28 340 0.0 6.4 0.00 0.00 0.00 82 1011.5
20260506140058 28 9 0.0 8.0 0.00 0.00 0.00 82 1011.5
20260506135557 28 338 3.2 8.0 0.00 0.00 0.00 82 1011.4
20260506135059 28 360 4.8 8.0 0.00 0.00 0.00 82 1011.3
20260506134559 28 5 1.6 8.0 0.00 0.00 0.00 82 1011.3
20260506134059 28 42 3.2 8.0 0.00 0.00 0.00 82 1011.4
20260506133559 28 42 6.4 8.0 0.00 0.00 0.00 81 1011.2
20260506133114 27 30 3.2 9.7 0.00 0.00 0.00 81 1011.1
20260506132558 27 50 4.8 9.7 0.00 0.00 0.00 81 1011.1
20260506132058 27 44 6.4 8.0 0.00 0.00 0.00 81 1011.1
20260506131604 27 19 4.8 8.0 0.00 0.00 0.00 81 1011.0
20260506131058 27 35 3.2 8.0 0.00 0.00 0.00 81 1011.1
20260506130559 27 34 4.8 9.7 0.00 0.00 0.00 81 1011.1
20260506130058 27 31 4.8 9.7 0.00 0.00 0.00 81 1011.0
20260506125558 27 36 4.8 8.0 0.00 0.00 0.00 80 1011.0
20260506125058 27 44 4.8 8.0 0.00 0.00 0.00 80 1010.9
20260506124601 27 46 4.8 6.4 0.00 0.00 0.00 80 1010.9
20260506124058 27 40 3.2 6.4 0.00 0.00 0.00 80 1010.9
20260506123602 27 31 3.2 6.4 0.00 0.00 0.00 80 1010.9
20260506123058 27 27 3.2 6.4 0.00 0.00 0.00 80 1010.9
20260506122558 27 44 1.6 4.8 0.00 0.00 0.00 80 1010.8
20260506122057 27 26 3.2 6.4 0.00 0.00 0.00 80 1010.8
20260506121558 27 36 3.2 4.8 0.00 0.00 0.00 81 1010.8
20260506121058 26 49 0.0 0.0 0.00 0.00 0.00 81 1010.7
20260506120600 26 36 0.0 0.0 0.00 0.00 0.00 81 1010.7
20260506120058 26 355 0.0 0.0 0.00 0.00 0.00 80 1010.6
20260506115601 26 338 0.0 0.0 0.00 0.00 0.00 80 1010.5
20260506115056 26 20 0.0 0.0 0.00 0.00 0.00 80 1010.5
20260506114558 26 33 0.0 0.0 0.00 0.00 0.00 80 1010.4
20260506114057 27 355 0.0 0.0 0.00 0.00 0.00 80 1010.3
20260506113557 27 53 0.0 0.0 0.00 0.00 0.00 79 1010.2
20260506113057 27 53 0.0 0.0 0.00 0.00 0.00 79 1010.2
20260506112559 27 53 0.0 0.0 0.00 0.00 0.00 79 1010.1
20260506112056 27 53 0.0 0.0 0.00 0.00 0.00 79 1010.0
20260506111557 27 53 0.0 0.0 0.00 0.00 0.00 79 1009.8
20260506111057 26 53 0.0 0.0 0.00 0.00 0.00 79 1009.8
20260506110557 26 53 0.0 0.0 0.00 0.00 0.00 79 1009.8
20260506110104 26 69 0.0 0.0 0.00 0.00 0.00 79 1009.7
20260506105557 26 80 0.0 0.0 0.00 0.00 0.00 80 1009.6
20260506105057 26 55 0.0 0.0 0.00 0.00 0.00 80 1009.4
20260506104559 26 345 0.0 0.0 0.00 0.00 0.00 81 1009.4
20260506104057 26 345 0.0 0.0 0.00 0.00 0.00 81 1009.4
20260506103557 26 345 0.0 0.0 0.00 0.00 0.00 80 1009.4
20260506103057 26 345 0.0 0.0 0.00 0.00 0.00 80 1009.4
20260506102558 26 343 0.0 0.0 0.00 0.00 0.00 80 1009.3
20260506102101 26 355 0.0 0.0 0.00 0.00 0.00 81 1009.3
20260506101556 26 355 0.0 0.0 0.00 0.00 0.00 81 1009.4
20260506101057 26 355 0.0 0.0 0.00 0.00 0.00 81 1009.4
20260506100557 26 355 0.0 0.0 0.00 0.00 0.00 81 1009.6
20260506100057 26 347 0.0 0.0 0.00 0.00 0.00 81 1009.6
20260506095558 27 350 0.0 0.0 0.00 0.00 0.00 81 1009.6
20260506095058 27 338 0.0 0.0 0.00 0.00 0.00 81 1009.7
20260506094622 27 79 0.0 0.0 0.00 0.00 0.00 81 1009.7
20260506094058 27 67 0.0 0.0 0.00 0.00 0.00 82 1009.7
20260506093558 27 36 0.0 0.0 0.00 0.00 0.00 83 1009.7
20260506093059 27 355 0.0 0.0 0.00 0.00 0.00 83 1009.7
20260506092559 27 355 0.0 0.0 0.00 0.00 0.00 83 1009.8
20260506092058 27 355 0.0 0.0 0.00 0.00 0.00 84 1009.8
20260506091558 27 355 0.0 0.0 0.00 0.00 0.00 84 1009.8
20260506091100 27 342 0.0 0.0 0.00 0.00 0.00 84 1009.9
20260506090558 27 5 0.0 0.0 0.00 0.00 0.00 84 1009.9
20260506090059 27 349 0.0 0.0 0.00 0.00 0.00 84 1010.0
20260506085556 27 350 0.0 0.0 0.00 0.00 0.00 84 1010.0
20260506085057 27 326 0.0 0.0 0.00 0.00 0.00 83 1010.0
20260506084557 27 298 0.0 0.0 0.00 0.00 0.00 83 1010.2